Flag for Turkey Weather past 2 weeks in Samsun, Turkey

Now
52 °F

Broken clouds.


Feels Like: 52 °F
Forecast: 36 / 51 °F
Wind: No wind

Location: Samsun / Carsamba

Current Time: Apr 21, 2015 at 10:09:51 AM

Latest Report: Apr 21, 2015 at 8:50 AM


Visibility: N/A

Pressure: 29.83 "Hg

Humidity: 67%

Dew point: 41 °F

Location of SamsunLocation

Historic Weather in Samsun — Graph

°F

Samsun temperature yesterday

Maximum temperature yesterday: 52 °F (at 3:50 PM)
Minimum temperature yesterday: 43 °F (at 12:50 AM)
Average temperature yesterday: 46 °F

Past Weeks' High & Low Weather Summary

 TemperatureHumidityPressure
High82 °F (Apr 18, 2:50 PM)100% (Apr 8, 10:50 AM)30.24 "Hg (Apr 8, 10:50 AM)
Low34 °F (Apr 16, 5:50 AM)21% (Apr 18, 2:50 PM)29.56 "Hg (Apr 7, 8:50 AM)
Average51 °F73%30.03 "Hg
* Reported Apr 6 8:50 AM — Apr 21 8:50 AM, Samsun, Weather by CustomWeather, © 2015

Note: Actual official high and low records may vary slightly from our data, if they occured in-between our weather recording intervals... More about our weather records

Advertising

Samsun weather history for previous 24 hours

 ConditionsComfort  
Time TempWeatherWind HumidityBarometerVisibility
8:50 AM
Tue, Apr 21
52 °FBroken clouds.No wind67%29.83 "HgN/A
7:50 AM48 °FPartly sunny.2 mph76%29.83 "HgN/A
6:50 AM43 °FPartly sunny.2 mph87%29.83 "HgN/A
5:50 AM43 °FPartly cloudy.3 mph87%29.83 "HgN/A
4:50 AM43 °FPartly cloudy.7 mph93%29.83 "HgN/A
3:50 AM43 °FPartly cloudy.6 mph93%29.83 "HgN/A
2:50 AM43 °FPartly cloudy.5 mph93%29.86 "HgN/A
1:50 AM45 °FPartly cloudy.No wind87%29.86 "HgN/A
12:50 AM45 °FPartly cloudy.No wind87%29.89 "HgN/A
11:50 PM
Mon, Apr 20
45 °FPartly cloudy.3 mph87%29.89 "HgN/A
10:50 PM45 °FPartly cloudy.3 mph87%29.89 "HgN/A
9:50 PM45 °FPassing clouds.2 mph87%29.92 "HgN/A
8:50 PM43 °FPassing clouds.5 mph81%29.92 "HgN/A
7:50 PM46 °FPassing clouds.5 mph76%29.89 "HgN/A
6:50 PM48 °FScattered clouds.6 mph71%29.86 "HgN/A
5:50 PM52 °FScattered clouds.8 mph67%29.89 "HgN/A
4:50 PM50 °FBroken clouds.9 mph71%29.89 "HgN/A
3:50 PM52 °FBroken clouds.7 mph67%29.89 "HgN/A
2:50 PM50 °FBroken clouds.6 mph71%29.92 "HgN/A
1:50 PM50 °FBroken clouds.7 mph67%29.95 "HgN/A
12:50 PM50 °FBroken clouds.3 mph67%29.95 "HgN/A
11:50 AM50 °FBroken clouds.2 mph67%29.98 "HgN/A
10:50 AM48 °FBroken clouds.3 mph66%30.01 "HgN/A
Weather by CustomWeather, © 2015

See weather overviewHow to use our weather pages